Regional Weather Roundup
Issued by NWS

Home | Current Version | Previous Version | Graphics & Text | Print | Product List | Glossary On
Versions: 1 2 3 4 5 6 7 8 9 10 11 12 13 14 15 16 17 18 19 20 21 22 23 24 25 26 27
000
ASUS45 KBOU 211407
RWRCO

WEATHER ROUNDUP FOR COLORADO
NATIONAL WEATHER SERVICE DENVER/BOULDER CO
800 AM MDT SUN MAY 21 2017

NOTE: "FAIR" INDICATES FEW OR NO CLOUDS BELOW 12000 FEET WITH NO
SIGNIFICANT WEATHER AND/OR OBSTRUCTIONS TO VISIBILITY.

COZ001>005-013-030-031-211500-
...NORTHWEST COLORADO...

CITY           SKY/WX    TMP DP  RH WIND       PRES   REMARKS
CRAIG          CLOUDY    43  33  68 CALM      30.23R
HAYDEN         FAIR      41  28  60 E9        30.24R
MEEKER         FAIR      45  30  55 CALM      30.23S
RABBIT EARS PA FAIR      30  27  86 W8        30.33R WCI  23
STEAMBOAT SPGS PTSUNNY   38  33  81 CALM      30.25S
WALDEN           N/A     39  28  65 S7        30.28S
$$

COZ006>008-011-211500-
...WEST CENTRAL VALLEYS...

CITY           SKY/WX    TMP DP  RH WIND       PRES   REMARKS
GRAND JUNCTION FAIR      52  34  50 SE13      30.19R
MONTROSE       FAIR      46  30  53 SE6       30.24R
EAGLE          SUNNY     36  30  80 CALM      30.32R
RIFLE          FAIR      41  33  73 CALM      30.24S
DELTA          FAIR      48  32  54 NE5       30.23S
NUCLA          FAIR      45  30  57 E6        30.26S
$$

COZ017>023-064>068-211500-
...SOUTHWEST COLORADO...

CITY           SKY/WX    TMP DP  RH WIND       PRES   REMARKS
DURANGO        FAIR      42  28  57 CALM      30.23R
CORTEZ         FAIR      44  32  62 SE3       30.22R
PAGOSA SPRINGS FAIR      43  24  47 CALM      30.27R
TELLURIDE      FAIR      37  23  57 SE3       30.33R
WOLF CREEK PAS FAIR      32  18  55 S6        30.42R WCI  26
$$

COZ009-010-012-014-032>034-037-058>063-211500-
...CENTRAL COLORADO...

CITY           SKY/WX    TMP DP  RH WIND       PRES   REMARKS
ASPEN          FAIR      39  23  52 SE5       30.27R
BUENA VISTA    FAIR      41  23  48 N5        30.29S
COPPER MTN     FAIR      28  18  64 W5        30.38R WCI  23
BERTHOUD PASS  FAIR      19   9  63 NW17      30.36S WCI   4
COTTONWOOD PAS FAIR      37  23  56 CALM      30.33R
GUNNISON       FAIR      35  27  72 CALM      30.32R
KREMMLING      FAIR      36  34  93 CALM      30.32R
LEADVILLE      FAIR      29  19  66 CALM      30.32R
MONARCH PASS   FAIR      28  12  50 W9        30.48R WCI  20
SALIDA         FAIR      42  26  53 CALM      30.36S
SUNLIGHT       FAIR      32  18  55 CALM      30.38S
WILKERSON PASS FAIR      32  19  59 N3        30.38S
$$

COZ069>075-211500-
...SAN LUIS VALLEY/SANGRE DE CRISTO MOUNTAINS...

CITY           SKY/WX    TMP DP  RH WIND       PRES   REMARKS
ALAMOSA        FAIR      43  28  55 SE7       30.26R
DEL NORTE      FAIR      43  25  49 W7        30.28S
LA VETA PASS   FAIR      34  25  69 MISG      30.43R
SAGUACHE       FAIR      45  25  45 W12       30.28R
$$

COZ035-036-038>040-211500-
...NORTHERN COLORADO FRONT RANGE...

CITY           SKY/WX    TMP DP  RH WIND       PRES   REMARKS
DENVER INTL AP FAIR      50  35  56 SW10      30.20R
DMNS CITY PARK   N/A     53  31  43 SW1G9     30.20S
AURORA         MOSUNNY   50  33  52 SW9       30.21R
FRONT RANGE AP MOSUNNY   54  37  54 SW8G16    30.21R
ERIE MUNI ARPT FAIR      49  37  63 CALM      30.20S
BOULDER MUN AP FAIR      50  34  53 CALM      30.20R
CENTENNIAL     FAIR      50  34  54 CALM      30.21R
BROOMFIELD     MOSUNNY   48  32  53 N5        30.21R
FORT COLLINS   FAIR      47  37  68 CALM      30.21R
LONGMONT       FAIR      53  36  52 CALM      30.22R
$$

COZ041-046-047-076>085-087-088-211500-
...PIKES PEAK/PALMER DIVIDE AND SOUTHERN FOOTHILLS...

CITY           SKY/WX    TMP DP  RH WIND       PRES   REMARKS
COLO. SPRINGS  FAIR      52  35  52 SE5       30.23S
A. F. ACADEMY  FAIR      47  33  59 CALM      30.23R
SCHRIEVER AFB  FAIR      49  32  52 S6        30.24R
CHEYENNE MTN   FAIR      47  32  56 NE5       30.18R
ELLICOTT       PTSUNNY  N/A N/A N/A VRB3      30.22R
FALCON         FAIR      49  32  52 SW8       30.26S
FORT CARSON    FAIR      51  37  57 CALM      30.21S
LIMON          FAIR      50  38  63 VRB3      30.22R
MONUMENT HILL  FAIR      46  34  61 S8        30.25S
CANON CITY     NOT AVBL
WALSENBURG     FAIR      52  37  58 CALM      30.22R
TRINIDAD       FAIR      49  36  61 W5        30.21S
$$

COZ042>045-048>051-090-091-211500-
...NORTHEAST COLORADO...

CITY           SKY/WX    TMP DP  RH WIND       PRES   REMARKS
GREELEY ARPT   FAIR      44  39  82 W5        30.21R
AKRON          FAIR      51  38  60 W7        30.19R
BURLINGTON     FAIR      55  46  71 W7        30.19R
WRAY           FAIR      50  43  76 W7        30.17S
YUMA           PTSUNNY   48  39  71 W8        30.18R
STERLING       FAIR      46  43  87 S3        30.18R
HOLYOKE        NOT AVBL
FORT MORGAN    FAIR      47  40  78 W3        30.20S
$$

COZ086-089-092>099-211500-
...SOUTHEAST COLORADO...

CITY           SKY/WX    TMP DP  RH WIND       PRES   REMARKS
PUEBLO         FAIR      52  41  66 CALM      30.19R
LA JUNTA       FAIR      58  39  49 S9        30.18R
LAMAR          CLOUDY    55  41  59 E3        30.17R
SPRINGFIELD      N/A     51  40  65 S14       30.20R
$$




USA.gov is the U.S. government's official web portal to all federal, state and local government web resources and services.